| time (UTC) | temp F | wind direction | speed MPH | gust MPH | rain 1hr in | rain 24hr in | rain mn in | humidity % | barometer mb |
| 20260901175738 | 94 | 294 | 7.0 | 19.0 | 0.00 | 0.01 | 0.00 | 57 | 1013.3 |
| 20260901175236 | 94 | 291 | 6.0 | 19.0 | 0.00 | 0.01 | 0.00 | 58 | 1013.1 |
| 20260901174735 | 94 | 295 | 4.0 | 15.0 | 0.00 | 0.01 | 0.00 | 58 | 1013.2 |
| 20260901174235 | 93 | 307 | 5.0 | 16.0 | 0.00 | 0.01 | 0.00 | 60 | 1013.3 |
| 20260901173734 | 93 | 7 | 1.0 | 10.0 | 0.00 | 0.01 | 0.00 | 61 | 1013.3 |
| 20260901173233 | 93 | 312 | 1.0 | 9.0 | 0.00 | 0.01 | 0.00 | 60 | 1013.4 |
| 20260901172732 | 92 | 281 | 1.0 | 5.0 | 0.00 | 0.01 | 0.00 | 62 | 1013.4 |
| 20260901172230 | 92 | 218 | 3.0 | 13.0 | 0.00 | 0.01 | 0.00 | 62 | 1013.5 |
| 20260901171730 | 91 | 293 | 6.0 | 13.0 | 0.00 | 0.01 | 0.00 | 64 | 1013.7 |
| 20260901171229 | 90 | 304 | 5.0 | 12.0 | 0.00 | 0.01 | 0.00 | 64 | 1013.8 |
| 20260901170727 | 91 | 309 | 6.0 | 17.0 | 0.00 | 0.01 | 0.00 | 62 | 1013.8 |
| 20260901170227 | 92 | 322 | 9.0 | 21.0 | 0.00 | 0.01 | 0.00 | 61 | 1013.9 |
| 20260901165726 | 92 | 312 | 4.0 | 13.0 | 0.00 | 0.01 | 0.00 | 63 | 1013.9 |
| 20260901165245 | 91 | 318 | 5.0 | 15.0 | 0.00 | 0.01 | 0.00 | 64 | 1014.0 |
| 20260901164724 | 91 | 323 | 5.0 | 10.0 | 0.00 | 0.01 | 0.00 | 63 | 1014.0 |
| 20260901164222 | 92 | 318 | 4.0 | 8.0 | 0.00 | 0.01 | 0.00 | 62 | 1013.9 |
| 20260901163721 | 92 | 168 | 0.0 | 3.0 | 0.00 | 0.01 | 0.00 | 65 | 1014.0 |
| 20260901163220 | 90 | 169 | 1.0 | 6.0 | 0.00 | 0.01 | 0.00 | 66 | 1014.2 |
| 20260901162740 | 90 | 291 | 2.0 | 10.0 | 0.00 | 0.01 | 0.00 | 66 | 1014.3 |
| 20260901162239 | 89 | 289 | 5.0 | 12.0 | 0.00 | 0.01 | 0.00 | 66 | 1014.4 |
| 20260901161738 | 89 | 306 | 6.0 | 15.0 | 0.00 | 0.01 | 0.00 | 66 | 1014.5 |
| 20260901161216 | 89 | 261 | 2.0 | 6.0 | 0.00 | 0.01 | 0.00 | 68 | 1014.6 |
| 20260901160716 | 88 | 269 | 1.0 | 5.0 | 0.00 | 0.02 | 0.00 | 67 | 1014.6 |
| 20260901155212 | 86 | 303 | 6.0 | 7.0 | 0.00 | 0.02 | 0.00 | 71 | 1014.6 |
| 20260901154711 | 86 | 340 | 3.0 | 9.0 | 0.00 | 0.02 | 0.00 | 71 | 1014.7 |
| 20260901154210 | 86 | 323 | 3.0 | 7.0 | 0.00 | 0.02 | 0.00 | 71 | 1014.7 |
| 20260901153709 | 86 | 340 | 3.0 | 8.0 | 0.00 | 0.02 | 0.00 | 72 | 1014.7 |
| 20260901153208 | 86 | 354 | 2.0 | 7.0 | 0.00 | 0.02 | 0.00 | 73 | 1014.7 |
| 20260901152707 | 85 | 280 | 0.0 | 2.0 | 0.00 | 0.02 | 0.00 | 74 | 1014.8 |
| 20260901152207 | 84 | 310 | 1.0 | 7.0 | 0.00 | 0.02 | 0.00 | 75 | 1014.9 |
| 20260901151705 | 84 | 303 | 1.0 | 8.0 | 0.00 | 0.02 | 0.00 | 76 | 1015.0 |
| 20260901151204 | 83 | 340 | 0.0 | 3.0 | 0.00 | 0.02 | 0.00 | 77 | 1015.1 |
| 20260901150703 | 83 | 287 | 1.0 | 9.0 | 0.00 | 0.02 | 0.00 | 77 | 1015.2 |
| 20260901150202 | 82 | 298 | 0.0 | 2.0 | 0.00 | 0.02 | 0.00 | 78 | 1015.2 |
| 20260901145701 | 82 | 330 | 2.0 | 7.0 | 0.00 | 0.02 | 0.00 | 77 | 1015.2 |
| 20260901145201 | 82 | 333 | 4.0 | 11.0 | 0.00 | 0.02 | 0.00 | 78 | 1015.2 |
| 20260901144659 | 82 | 286 | 2.0 | 10.0 | 0.00 | 0.02 | 0.00 | 79 | 1015.2 |
| 20260901144158 | 82 | 325 | 1.0 | 8.0 | 0.00 | 0.02 | 0.00 | 79 | 1015.2 |
| 20260901143657 | 82 | 15 | 0.0 | 3.0 | 0.00 | 0.02 | 0.00 | 78 | 1015.3 |
| 20260901143157 | 82 | 3 | 2.0 | 8.0 | 0.00 | 0.02 | 0.00 | 78 | 1015.4 |
| 20260901142655 | 82 | 8 | 3.0 | 10.0 | 0.00 | 0.02 | 0.00 | 78 | 1015.3 |
| 20260901142215 | 81 | 328 | 4.0 | 11.0 | 0.00 | 0.02 | 0.00 | 78 | 1015.4 |
| 20260901141653 | 80 | 324 | 4.0 | 12.0 | 0.00 | 0.02 | 0.00 | 80 | 1015.4 |
| 20260901141152 | 79 | 314 | 7.0 | 12.0 | 0.00 | 0.02 | 0.00 | 82 | 1015.5 |
| 20260901140651 | 78 | 312 | 3.0 | 10.0 | 0.00 | 0.02 | 0.00 | 82 | 1015.4 |
| 20260901140151 | 78 | 314 | 3.0 | 11.0 | 0.00 | 0.02 | 0.00 | 82 | 1015.4 |
| 20260901135649 | 79 | 309 | 2.0 | 8.0 | 0.00 | 0.02 | 0.00 | 82 | 1015.4 |
| 20260901135148 | 79 | 0 | 1.0 | 5.0 | 0.00 | 0.02 | 0.00 | 83 | 1015.3 |
| 20260901134647 | 78 | 326 | 1.0 | 5.0 | 0.00 | 0.02 | 0.00 | 83 | 1015.2 |
| 20260901134146 | 78 | 292 | 1.0 | 5.0 | 0.00 | 0.02 | 0.00 | 83 | 1015.2 |
| 20260901133645 | 78 | 299 | 2.0 | 8.0 | 0.00 | 0.02 | 0.00 | 83 | 1015.3 |
| 20260901133144 | 78 | 311 | 3.0 | 9.0 | 0.00 | 0.02 | 0.00 | 83 | 1015.3 |
| 20260901132643 | 78 | 306 | 1.0 | 6.0 | 0.00 | 0.02 | 0.00 | 83 | 1015.2 |
| 20260901132142 | 78 | 321 | 1.0 | 7.0 | 0.00 | 0.02 | 0.00 | 82 | 1015.1 |
| 20260901131641 | 77 | 314 | 1.0 | 8.0 | 0.00 | 0.02 | 0.00 | 84 | 1015.1 |
| 20260901131140 | 77 | 335 | 1.0 | 9.0 | 0.00 | 0.02 | 0.00 | 85 | 1015.2 |
| 20260901130638 | 76 | 304 | 2.0 | 7.0 | 0.00 | 0.02 | 0.00 | 85 | 1015.3 |
| 20260901130138 | 76 | 327 | 3.0 | 14.0 | 0.00 | 0.02 | 0.00 | 87 | 1015.4 |
| 20260901125638 | 75 | 325 | 1.0 | 7.0 | 0.00 | 0.02 | 0.00 | 88 | 1015.5 |
| 20260901125158 | 75 | 305 | 0.0 | 2.0 | 0.00 | 0.02 | 0.00 | 88 | 1015.4 |
| 20260901124656 | 75 | 310 | 1.0 | 7.0 | 0.00 | 0.02 | 0.00 | 88 | 1015.5 |
| 20260901124134 | 74 | 286 | 2.0 | 8.0 | 0.00 | 0.02 | 0.00 | 89 | 1015.6 |
| 20260901123633 | 74 | 279 | 2.0 | 10.0 | 0.00 | 0.02 | 0.00 | 90 | 1015.7 |
| 20260901123132 | 74 | 305 | 0.0 | 6.0 | 0.00 | 0.02 | 0.00 | 91 | 1015.6 |
| 20260901122631 | 74 | 304 | 0.0 | 3.0 | 0.00 | 0.02 | 0.00 | 91 | 1015.5 |
| 20260901122130 | 73 | 281 | 0.0 | 4.0 | 0.00 | 0.02 | 0.00 | 92 | 1015.5 |
| 20260901121628 | 73 | 285 | 1.0 | 9.0 | 0.00 | 0.02 | 0.00 | 93 | 1015.5 |
| 20260901121128 | 72 | 315 | 1.0 | 10.0 | 0.00 | 0.02 | 0.00 | 94 | 1015.5 |
| 20260901120627 | 72 | 296 | 1.0 | 7.0 | 0.00 | 0.02 | 0.00 | 94 | 1015.5 |
| 20260901120126 | 72 | 301 | 0.0 | 0.0 | 0.00 | 0.02 | 0.00 | 95 | 1015.4 |
| 20260901115625 | 71 | 298 | 0.0 | 5.0 | 0.00 | 0.02 | 0.00 | 95 | 1015.4 |
| 20260901115124 | 71 | 284 | 0.0 | 3.0 | 0.00 | 0.02 | 0.00 | 95 | 1015.4 |
| 20260901114623 | 71 | 323 | 0.0 | 0.0 | 0.00 | 0.02 | 0.00 | 95 | 1015.4 |
| 20260901114143 | 71 | 330 | 0.0 | 2.0 | 0.00 | 0.02 | 0.00 | 96 | 1015.4 |
| 20260901113620 | 71 | 1 | 0.0 | 0.0 | 0.00 | 0.02 | 0.00 | 96 | 1015.3 |
| 20260901113119 | 70 | 1 | 0.0 | 0.0 | 0.00 | 0.02 | 0.00 | 96 | 1015.3 |
| 20260901112619 | 70 | 1 | 0.0 | 0.0 | 0.00 | 0.02 | 0.00 | 95 | 1015.3 |
| 20260901112118 | 70 | 1 | 0.0 | 0.0 | 0.00 | 0.02 | 0.00 | 95 | 1015.2 |
| 20260901111617 | 70 | 1 | 0.0 | 0.0 | 0.00 | 0.02 | 0.00 | 95 | 1015.3 |
| 20260901111116 | 70 | 351 | 0.0 | 1.0 | 0.00 | 0.02 | 0.00 | 95 | 1015.2 |
| 20260901110636 | 70 | 306 | 0.0 | 0.0 | 0.00 | 0.02 | 0.00 | 95 | 1015.2 |
| 20260901110113 | 70 | 321 | 0.0 | 0.0 | 0.00 | 0.02 | 0.00 | 95 | 1015.1 |
| 20260901105612 | 71 | 243 | 0.0 | 0.0 | 0.00 | 0.02 | 0.00 | 95 | 1015.1 |
| 20260901105112 | 71 | 243 | 0.0 | 0.0 | 0.00 | 0.02 | 0.00 | 95 | 1015.1 |
| 20260901104610 | 71 | 272 | 0.0 | 1.0 | 0.00 | 0.02 | 0.00 | 95 | 1015.0 |
| 20260901104109 | 71 | 290 | 0.0 | 0.0 | 0.00 | 0.02 | 0.00 | 95 | 1015.0 |
| 20260901103608 | 71 | 246 | 0.0 | 2.0 | 0.00 | 0.02 | 0.00 | 95 | 1015.0 |
| 20260901103107 | 71 | 268 | 0.0 | 4.0 | 0.00 | 0.02 | 0.00 | 95 | 1015.0 |
| 20260901102607 | 71 | 284 | 1.0 | 5.0 | 0.00 | 0.02 | 0.00 | 95 | 1015.0 |
| 20260901102106 | 71 | 300 | 1.0 | 7.0 | 0.00 | 0.02 | 0.00 | 95 | 1014.9 |
| 20260901101604 | 71 | 301 | 0.0 | 0.0 | 0.00 | 0.02 | 0.00 | 95 | 1014.8 |
| 20260901101103 | 71 | 287 | 1.0 | 8.0 | 0.00 | 0.02 | 0.00 | 95 | 1014.8 |
| 20260901100602 | 71 | 277 | 0.0 | 3.0 | 0.00 | 0.02 | 0.00 | 94 | 1014.9 |
| 20260901100101 | 71 | 269 | 0.0 | 3.0 | 0.00 | 0.02 | 0.00 | 94 | 1014.9 |
| 20260901095600 | 71 | 285 | 0.0 | 2.0 | 0.00 | 0.02 | 0.00 | 94 | 1014.9 |
| 20260901095121 | 71 | 280 | 0.0 | 3.0 | 0.00 | 0.02 | 0.00 | 94 | 1014.9 |
| 20260901094558 | 71 | 280 | 0.0 | 3.0 | 0.00 | 0.02 | 0.00 | 94 | 1014.9 |
| 20260901094058 | 72 | 319 | 0.0 | 1.0 | 0.00 | 0.02 | 0.00 | 94 | 1014.9 |
| 20260901093557 | 72 | 281 | 0.0 | 4.0 | 0.00 | 0.02 | 0.00 | 94 | 1014.9 |
| 20260901093056 | 72 | 280 | 0.0 | 0.0 | 0.00 | 0.02 | 0.00 | 94 | 1014.8 |
| 20260901092554 | 72 | 285 | 0.0 | 1.0 | 0.00 | 0.02 | 0.00 | 94 | 1014.8 |
| 20260901092053 | 72 | 277 | 0.0 | 3.0 | 0.00 | 0.02 | 0.00 | 94 | 1014.8 |
| 20260901091552 | 72 | 280 | 0.0 | 5.0 | 0.00 | 0.02 | 0.00 | 93 | 1014.7 |
| 20260901091051 | 72 | 311 | 0.0 | 2.0 | 0.00 | 0.02 | 0.00 | 93 | 1014.7 |
| 20260901090550 | 72 | 270 | 1.0 | 5.0 | 0.00 | 0.02 | 0.00 | 93 | 1014.6 |
| 20260901090049 | 72 | 270 | 0.0 | 4.0 | 0.00 | 0.02 | 0.00 | 93 | 1014.6 |
| 20260901085548 | 72 | 286 | 2.0 | 7.0 | 0.00 | 0.02 | 0.00 | 93 | 1014.6 |
| 20260901085047 | 72 | 260 | 0.0 | 3.0 | 0.00 | 0.02 | 0.00 | 93 | 1014.5 |
| 20260901084546 | 73 | 306 | 0.0 | 3.0 | 0.00 | 0.02 | 0.00 | 93 | 1014.5 |
| 20260901084107 | 73 | 279 | 2.0 | 8.0 | 0.00 | 0.02 | 0.00 | 93 | 1014.5 |
| 20260901083544 | 73 | 310 | 1.0 | 7.0 | 0.00 | 0.02 | 0.00 | 93 | 1014.5 |
| 20260901083043 | 73 | 294 | 2.0 | 8.0 | 0.00 | 0.02 | 0.00 | 93 | 1014.4 |
| 20260901082542 | 73 | 286 | 3.0 | 13.0 | 0.00 | 0.02 | 0.00 | 93 | 1014.4 |
| 20260901082102 | 73 | 318 | 0.0 | 6.0 | 0.00 | 0.02 | 0.00 | 93 | 1014.5 |
| 20260901081540 | 73 | 280 | 1.0 | 10.0 | 0.00 | 0.02 | 0.00 | 93 | 1014.5 |
| 20260901081039 | 73 | 285 | 1.0 | 8.0 | 0.00 | 0.02 | 0.00 | 93 | 1014.5 |
| 20260901080538 | 73 | 298 | 1.0 | 5.0 | 0.00 | 0.02 | 0.00 | 93 | 1014.4 |
| 20260901080037 | 73 | 303 | 2.0 | 10.0 | 0.00 | 0.02 | 0.00 | 93 | 1014.4 |
| 20260901075557 | 73 | 291 | 3.0 | 12.0 | 0.00 | 0.02 | 0.00 | 93 | 1014.3 |
| 20260901075035 | 73 | 290 | 1.0 | 7.0 | 0.00 | 0.02 | 0.00 | 93 | 1014.4 |
| 20260901074556 | 73 | 287 | 1.0 | 7.0 | 0.00 | 0.02 | 0.00 | 93 | 1014.4 |
| 20260901074054 | 73 | 281 | 0.0 | 7.0 | 0.00 | 0.02 | 0.00 | 92 | 1014.4 |
| 20260901073532 | 73 | 314 | 1.0 | 8.0 | 0.00 | 0.02 | 0.00 | 92 | 1014.4 |
| 20260901073031 | 73 | 275 | 0.0 | 6.0 | 0.00 | 0.02 | 0.00 | 92 | 1014.4 |
| 20260901072530 | 73 | 298 | 0.0 | 4.0 | 0.00 | 0.02 | 0.00 | 92 | 1014.4 |
| 20260901072029 | 73 | 313 | 0.0 | 6.0 | 0.00 | 0.02 | 0.00 | 92 | 1014.5 |
| 20260901071528 | 73 | 298 | 1.0 | 6.0 | 0.00 | 0.02 | 0.00 | 92 | 1014.5 |
| 20260901071027 | 73 | 291 | 0.0 | 4.0 | 0.00 | 0.02 | 0.00 | 92 | 1014.6 |
| 20260901070526 | 73 | 297 | 2.0 | 8.0 | 0.00 | 0.02 | 0.00 | 92 | 1014.5 |
| 20260901070046 | 73 | 301 | 1.0 | 7.0 | 0.00 | 0.02 | 0.00 | 92 | 1014.5 |
| 20260901065545 | 73 | 299 | 1.0 | 5.0 | 0.00 | 0.02 | 0.00 | 92 | 1014.5 |
| 20260901065023 | 73 | 313 | 0.0 | 0.0 | 0.00 | 0.02 | 0.00 | 91 | 1014.5 |
| 20260901064522 | 73 | 295 | 0.0 | 4.0 | 0.00 | 0.02 | 0.00 | 91 | 1014.5 |
| 20260901064020 | 73 | 304 | 0.0 | 4.0 | 0.00 | 0.02 | 0.00 | 91 | 1014.5 |
| 20260901063520 | 73 | 294 | 0.0 | 2.0 | 0.00 | 0.02 | 0.00 | 91 | 1014.5 |
| 20260901063019 | 73 | 291 | 0.0 | 3.0 | 0.00 | 0.02 | 0.00 | 91 | 1014.4 |
| 20260901062519 | 74 | 288 | 0.0 | 0.0 | 0.00 | 0.02 | 0.00 | 90 | 1014.5 |
| 20260901062037 | 74 | 271 | 0.0 | 0.0 | 0.00 | 0.02 | 0.00 | 90 | 1014.5 |
| 20260901061536 | 74 | 267 | 0.0 | 0.0 | 0.00 | 0.02 | 0.00 | 90 | 1014.5 |
| 20260901061015 | 74 | 286 | 0.0 | 4.0 | 0.00 | 0.02 | 0.00 | 89 | 1014.6 |
| 20260901060514 | 74 | 291 | 0.0 | 0.0 | 0.00 | 0.02 | 0.00 | 89 | 1014.7 |
| 20260901060013 | 74 | 295 | 1.0 | 6.0 | 0.00 | 0.02 | 0.00 | 89 | 1014.8 |
| 20260901055513 | 75 | 292 | 1.0 | 4.0 | 0.00 | 0.02 | 0.00 | 88 | 1014.8 |
| 20260901055032 | 75 | 279 | 1.0 | 7.0 | 0.00 | 0.02 | 0.00 | 88 | 1014.8 |
| 20260901054531 | 75 | 290 | 1.0 | 5.0 | 0.00 | 0.02 | 0.00 | 88 | 1014.8 |
| 20260901054009 | 75 | 302 | 2.0 | 13.0 | 0.00 | 0.02 | 0.00 | 87 | 1014.9 |
| 20260901053528 | 75 | 292 | 2.0 | 8.0 | 0.00 | 0.02 | 0.00 | 87 | 1014.8 |
| 20260901053007 | 75 | 272 | 1.0 | 11.0 | 0.00 | 0.02 | 0.00 | 87 | 1014.8 |
| 20260901052505 | 75 | 274 | 1.0 | 6.0 | 0.00 | 0.02 | 0.00 | 87 | 1014.8 |
| 20260901052005 | 75 | 277 | 1.0 | 10.0 | 0.00 | 0.02 | 0.00 | 87 | 1014.8 |
| 20260901051503 | 75 | 272 | 1.0 | 7.0 | 0.00 | 0.02 | 0.00 | 87 | 1014.7 |
| 20260901051003 | 75 | 285 | 1.0 | 7.0 | 0.00 | 0.02 | 0.00 | 87 | 1014.7 |
| 20260901050502 | 75 | 296 | 0.0 | 3.0 | 0.00 | 0.02 | 0.00 | 87 | 1014.7 |
| 20260901050000 | 75 | 281 | 0.0 | 3.0 | 0.00 | 0.02 | 0.00 | 86 | 1014.6 |
| 20260901045500 | 75 | 281 | 0.0 | 3.0 | 0.00 | 0.02 | 0.00 | 86 | 1014.5 |
| 20260901044959 | 75 | 283 | 1.0 | 6.0 | 0.00 | 0.02 | 0.00 | 86 | 1014.5 |
| 20260901044457 | 75 | 276 | 1.0 | 17.0 | 0.00 | 0.02 | 0.00 | 86 | 1014.5 |
| 20260901043957 | 75 | 270 | 2.0 | 10.0 | 0.00 | 0.02 | 0.00 | 86 | 1014.6 |
| 20260901043456 | 75 | 278 | 1.0 | 8.0 | 0.00 | 0.02 | 0.00 | 86 | 1014.6 |
| 20260901043016 | 75 | 274 | 1.0 | 5.0 | 0.00 | 0.02 | 0.00 | 86 | 1014.7 |
| 20260901042454 | 75 | 271 | 1.0 | 4.0 | 0.00 | 0.02 | 0.00 | 86 | 1014.7 |
| 20260901042014 | 75 | 314 | 1.0 | 7.0 | 0.00 | 0.02 | 0.00 | 86 | 1014.7 |
| 20260901041452 | 75 | 302 | 1.0 | 7.0 | 0.00 | 0.02 | 0.00 | 86 | 1014.7 |
| 20260901040950 | 75 | 308 | 1.0 | 9.0 | 0.00 | 0.02 | 0.00 | 86 | 1014.6 |
| 20260901040449 | 75 | 271 | 2.0 | 8.0 | 0.00 | 0.02 | 0.00 | 86 | 1014.5 |
| 20260901035948 | 75 | 190 | 1.0 | 11.0 | 0.00 | 0.02 | 0.02 | 86 | 1014.5 |
| 20260901035447 | 75 | 287 | 1.0 | 8.0 | 0.00 | 0.02 | 0.02 | 86 | 1014.6 |
| 20260901034946 | 75 | 286 | 1.0 | 7.0 | 0.00 | 0.02 | 0.02 | 86 | 1014.6 |
| 20260901034507 | 74 | 275 | 1.0 | 7.0 | 0.00 | 0.02 | 0.02 | 86 | 1014.7 |
| 20260901033945 | 74 | 278 | 1.0 | 5.0 | 0.00 | 0.02 | 0.02 | 86 | 1014.8 |
| 20260901033443 | 74 | 273 | 1.0 | 8.0 | 0.00 | 0.02 | 0.02 | 85 | 1014.9 |
| 20260901033003 | 74 | 279 | 3.0 | 14.0 | 0.00 | 0.02 | 0.02 | 85 | 1014.9 |
| 20260901032441 | 74 | 277 | 0.0 | 4.0 | 0.00 | 0.02 | 0.02 | 85 | 1014.8 |
| 20260901031941 | 74 | 265 | 0.0 | 7.0 | 0.00 | 0.02 | 0.02 | 85 | 1014.7 |
| 20260901031440 | 74 | 257 | 2.0 | 9.0 | 0.00 | 0.02 | 0.02 | 85 | 1014.8 |
| 20260901030938 | 74 | 255 | 1.0 | 6.0 | 0.00 | 0.02 | 0.02 | 84 | 1014.9 |
| 20260901030458 | 74 | 256 | 1.0 | 10.0 | 0.00 | 0.02 | 0.02 | 84 | 1014.9 |
| 20260901025937 | 74 | 266 | 1.0 | 8.0 | 0.00 | 0.02 | 0.02 | 84 | 1014.9 |
| 20260901025435 | 74 | 268 | 0.0 | 9.0 | 0.00 | 0.02 | 0.02 | 83 | 1014.9 |
| 20260901024934 | 75 | 260 | 1.0 | 9.0 | 0.00 | 0.02 | 0.02 | 83 | 1014.9 |
| 20260901024434 | 75 | 200 | 0.0 | 2.0 | 0.00 | 0.02 | 0.02 | 82 | 1014.9 |
| 20260901023932 | 75 | 215 | 1.0 | 4.0 | 0.00 | 0.02 | 0.02 | 82 | 1014.9 |
| 20260901023431 | 75 | 222 | 0.0 | 1.0 | 0.00 | 0.02 | 0.02 | 82 | 1014.9 |
| 20260901022952 | 75 | 243 | 0.0 | 4.0 | 0.00 | 0.02 | 0.02 | 81 | 1014.9 |
| 20260901022429 | 75 | 237 | 1.0 | 8.0 | 0.00 | 0.02 | 0.02 | 81 | 1014.9 |
| 20260901021928 | 75 | 275 | 1.0 | 8.0 | 0.00 | 0.02 | 0.02 | 80 | 1014.9 |
| 20260901021427 | 75 | 213 | 1.0 | 6.0 | 0.00 | 0.02 | 0.02 | 80 | 1014.9 |
| 20260901020926 | 75 | 160 | 0.0 | 0.0 | 0.00 | 0.02 | 0.02 | 79 | 1014.9 |
| 20260901020425 | 75 | 205 | 0.0 | 7.0 | 0.00 | 0.02 | 0.02 | 79 | 1015.0 |
| 20260901015945 | 75 | 228 | 0.0 | 6.0 | 0.00 | 0.02 | 0.02 | 79 | 1015.0 |
| 20260901015423 | 75 | 272 | 0.0 | 5.0 | 0.00 | 0.02 | 0.02 | 79 | 1015.1 |
| 20260901014923 | 75 | 193 | 1.0 | 7.0 | 0.00 | 0.02 | 0.02 | 78 | 1015.0 |
| 20260901014421 | 75 | 223 | 1.0 | 12.0 | 0.00 | 0.02 | 0.02 | 78 | 1015.0 |
| 20260901013920 | 75 | 236 | 1.0 | 9.0 | 0.00 | 0.02 | 0.02 | 78 | 1014.9 |
| 20260901013419 | 75 | 195 | 1.0 | 11.0 | 0.00 | 0.02 | 0.02 | 78 | 1014.8 |
| 20260901012939 | 75 | 191 | 3.0 | 13.0 | 0.00 | 0.02 | 0.02 | 78 | 1014.7 |
| 20260901012417 | 75 | 209 | 0.0 | 4.0 | 0.00 | 0.02 | 0.02 | 78 | 1014.8 |
| 20260901011916 | 75 | 188 | 2.0 | 10.0 | 0.00 | 0.02 | 0.02 | 77 | 1014.8 |
| 20260901011415 | 74 | 197 | 2.0 | 11.0 | 0.00 | 0.02 | 0.02 | 78 | 1014.8 |
| 20260901010914 | 74 | 182 | 0.0 | 4.0 | 0.00 | 0.02 | 0.02 | 79 | 1014.8 |
| 20260901010413 | 73 | 229 | 3.0 | 12.0 | 0.00 | 0.02 | 0.02 | 81 | 1014.8 |
| 20260901005912 | 73 | 249 | 2.0 | 10.0 | 0.00 | 0.02 | 0.02 | 83 | 1014.7 |
| 20260901005411 | 73 | 280 | 0.0 | 6.0 | 0.00 | 0.02 | 0.02 | 84 | 1014.6 |
| 20260901004911 | 73 | 194 | 0.0 | 6.0 | 0.00 | 0.02 | 0.02 | 85 | 1014.5 |
| 20260901004409 | 73 | 221 | 0.0 | 1.0 | 0.00 | 0.02 | 0.02 | 85 | 1014.5 |
| 20260901003929 | 73 | 176 | 0.0 | 0.0 | 0.00 | 0.02 | 0.02 | 85 | 1014.5 |
| 20260901003407 | 73 | 176 | 0.0 | 2.0 | 0.00 | 0.02 | 0.02 | 85 | 1014.3 |
| 20260901002906 | 73 | 184 | 0.0 | 8.0 | 0.00 | 0.02 | 0.02 | 86 | 1014.3 |
| 20260901002426 | 73 | 189 | 0.0 | 6.0 | 0.00 | 0.02 | 0.02 | 86 | 1014.3 |
| 20260901001904 | 73 | 187 | 0.0 | 6.0 | 0.00 | 0.02 | 0.02 | 86 | 1014.2 |
| 20260901001403 | 73 | 179 | 0.0 | 4.0 | 0.00 | 0.02 | 0.02 | 86 | 1014.2 |
| 20260901000902 | 73 | 183 | 1.0 | 5.0 | 0.00 | 0.02 | 0.02 | 87 | 1014.3 |
| 20260901000422 | 73 | 188 | 1.0 | 6.0 | 0.00 | 0.02 | 0.02 | 87 | 1014.3 |
| 20260831235900 | 73 | 178 | 1.0 | 5.0 | 0.00 | 0.02 | 0.02 | 88 | 1014.3 |
| 20260831235358 | 73 | 184 | 1.0 | 9.0 | 0.00 | 0.02 | 0.02 | 88 | 1014.3 |
| 20260831234858 | 74 | 178 | 1.0 | 9.0 | 0.00 | 0.02 | 0.02 | 88 | 1014.3 |
| 20260831234357 | 74 | 181 | 0.0 | 4.0 | 0.00 | 0.02 | 0.02 | 88 | 1014.3 |
| 20260831233917 | 74 | 179 | 1.0 | 7.0 | 0.00 | 0.02 | 0.02 | 88 | 1014.4 |
| 20260831233355 | 74 | 176 | 1.0 | 6.0 | 0.00 | 0.02 | 0.02 | 88 | 1014.3 |
| 20260831232854 | 74 | 166 | 0.0 | 4.0 | 0.00 | 0.02 | 0.02 | 88 | 1014.4 |
| 20260831232353 | 74 | 184 | 1.0 | 8.0 | 0.00 | 0.02 | 0.02 | 88 | 1014.4 |
| 20260831231913 | 74 | 176 | 1.0 | 10.0 | 0.00 | 0.02 | 0.02 | 88 | 1014.4 |
| 20260831231412 | 74 | 183 | 3.0 | 9.0 | 0.00 | 0.02 | 0.02 | 88 | 1014.4 |
| 20260831230850 | 74 | 185 | 2.0 | 10.0 | 0.00 | 0.02 | 0.02 | 88 | 1014.6 |
| 20260831230349 | 75 | 182 | 1.0 | 9.0 | 0.00 | 0.02 | 0.02 | 88 | 1014.6 |
| 20260831225848 | 75 | 176 | 1.0 | 7.0 | 0.00 | 0.02 | 0.02 | 88 | 1014.7 |
| 20260831225346 | 75 | 177 | 1.0 | 9.0 | 0.00 | 0.02 | 0.02 | 88 | 1014.7 |
| 20260831224846 | 75 | 192 | 0.0 | 7.0 | 0.00 | 0.02 | 0.02 | 88 | 1014.7 |
| 20260831224344 | 75 | 179 | 6.0 | 18.0 | 0.01 | 0.02 | 0.02 | 88 | 1014.6 |
| 20260831223843 | 75 | 177 | 5.0 | 21.0 | 0.01 | 0.02 | 0.02 | 87 | 1014.8 |
| 20260831223343 | 75 | 169 | 3.0 | 13.0 | 0.01 | 0.02 | 0.02 | 87 | 1014.9 |
| 20260831222842 | 75 | 187 | 4.0 | 8.0 | 0.01 | 0.02 | 0.02 | 87 | 1015.1 |
| 20260831222341 | 75 | 182 | 2.0 | 10.0 | 0.01 | 0.02 | 0.02 | 86 | 1015.5 |
| 20260831221840 | 75 | 179 | 0.0 | 6.0 | 0.01 | 0.02 | 0.02 | 86 | 1015.8 |
| 20260831221400 | 75 | 274 | 0.0 | 6.0 | 0.01 | 0.02 | 0.02 | 85 | 1015.5 |
| 20260831220838 | 75 | 188 | 2.0 | 9.0 | 0.01 | 0.02 | 0.02 | 84 | 1015.4 |
| 20260831220337 | 75 | 232 | 2.0 | 9.0 | 0.01 | 0.02 | 0.02 | 84 | 1015.5 |
| 20260831215836 | 75 | 196 | 3.0 | 14.0 | 0.01 | 0.02 | 0.02 | 84 | 1015.4 |
| 20260831215334 | 75 | 196 | 0.0 | 4.0 | 0.01 | 0.02 | 0.02 | 84 | 1015.4 |
| 20260831214834 | 76 | 192 | 2.0 | 8.0 | 0.01 | 0.02 | 0.02 | 83 | 1015.5 |
| 20260831214332 | 76 | 166 | 1.0 | 5.0 | 0.00 | 0.01 | 0.01 | 82 | 1015.5 |
| 20260831213832 | 77 | 176 | 2.0 | 12.0 | 0.00 | 0.01 | 0.01 | 80 | 1015.6 |
| 20260831213330 | 77 | 209 | 1.0 | 6.0 | 0.00 | 0.02 | 0.01 | 78 | 1016.0 |
| 20260831212830 | 78 | 233 | 2.0 | 12.0 | 0.00 | 0.02 | 0.01 | 76 | 1016.0 |
| 20260831212329 | 78 | 288 | 4.0 | 19.0 | 0.00 | 0.02 | 0.01 | 76 | 1015.9 |
| 20260831211827 | 78 | 237 | 6.0 | 21.0 | 0.00 | 0.02 | 0.01 | 76 | 1016.0 |
| 20260831211327 | 79 | 232 | 2.0 | 10.0 | 0.00 | 0.02 | 0.01 | 77 | 1015.9 |
| 20260831210826 | 79 | 181 | 1.0 | 8.0 | 0.00 | 0.02 | 0.01 | 75 | 1015.7 |
| 20260831210324 | 79 | 179 | 1.0 | 10.0 | 0.00 | 0.02 | 0.01 | 74 | 1015.6 |
| 20260831205823 | 80 | 188 | 1.0 | 6.0 | 0.00 | 0.02 | 0.01 | 73 | 1015.6 |
| 20260831205322 | 80 | 183 | 3.0 | 11.0 | 0.00 | 0.02 | 0.01 | 72 | 1015.6 |
| 20260831204842 | 80 | 185 | 4.0 | 12.0 | 0.00 | 0.02 | 0.01 | 72 | 1015.5 |
| 20260831204321 | 80 | 173 | 4.0 | 9.0 | 0.00 | 0.02 | 0.01 | 70 | 1015.6 |
| 20260831203820 | 81 | 178 | 2.0 | 7.0 | 0.00 | 0.02 | 0.01 | 71 | 1015.8 |
| 20260831203318 | 81 | 182 | 3.0 | 11.0 | 0.00 | 0.02 | 0.01 | 70 | 1015.9 |
| 20260831202838 | 81 | 179 | 2.0 | 8.0 | 0.00 | 0.02 | 0.01 | 69 | 1015.9 |
| 20260831202316 | 82 | 177 | 3.0 | 12.0 | 0.00 | 0.02 | 0.01 | 68 | 1015.8 |
| 20260831201815 | 82 | 188 | 5.0 | 12.0 | 0.00 | 0.02 | 0.01 | 67 | 1015.7 |
| 20260831201315 | 82 | 167 | 5.0 | 11.0 | 0.00 | 0.02 | 0.01 | 68 | 1015.6 |
| 20260831200813 | 82 | 172 | 6.0 | 15.0 | 0.00 | 0.02 | 0.01 | 67 | 1015.5 |
| 20260831200334 | 82 | 172 | 5.0 | 13.0 | 0.00 | 0.02 | 0.01 | 67 | 1015.6 |
| 20260831195811 | 82 | 174 | 6.0 | 15.0 | 0.00 | 0.02 | 0.01 | 69 | 1015.7 |
| 20260831195331 | 82 | 186 | 2.0 | 7.0 | 0.00 | 0.02 | 0.01 | 70 | 1015.9 |
| 20260831194809 | 82 | 186 | 2.0 | 8.0 | 0.00 | 0.02 | 0.01 | 69 | 1015.9 |
| 20260831194308 | 82 | 156 | 1.0 | 5.0 | 0.00 | 0.02 | 0.01 | 69 | 1016.0 |
| 20260831193808 | 82 | 154 | 0.0 | 5.0 | 0.00 | 0.02 | 0.01 | 69 | 1016.0 |
| 20260831193306 | 83 | 158 | 1.0 | 7.0 | 0.00 | 0.02 | 0.01 | 69 | 1016.1 |
| 20260831192827 | 82 | 180 | 0.0 | 0.0 | 0.00 | 0.02 | 0.01 | 69 | 1016.2 |
| 20260831192305 | 82 | 174 | 0.0 | 3.0 | 0.00 | 0.02 | 0.01 | 72 | 1016.2 |
| 20260831191804 | 82 | 180 | 0.0 | 1.0 | 0.00 | 0.02 | 0.01 | 71 | 1016.2 |
| 20260831191302 | 82 | 163 | 1.0 | 5.0 | 0.00 | 0.02 | 0.01 | 69 | 1016.3 |
| 20260831190801 | 83 | 147 | 0.0 | 0.0 | 0.00 | 0.02 | 0.01 | 67 | 1016.4 |
| 20260831190300 | 83 | 145 | 0.0 | 2.0 | 0.00 | 0.02 | 0.01 | 66 | 1016.2 |
| 20260831185759 | 84 | 156 | 1.0 | 8.0 | 0.00 | 0.02 | 0.01 | 65 | 1015.9 |
| 20260831185319 | 84 | 170 | 1.0 | 7.0 | 0.00 | 0.02 | 0.01 | 64 | 1015.9 |
| 20260831184757 | 85 | 187 | 1.0 | 7.0 | 0.00 | 0.02 | 0.01 | 61 | 1015.9 |
| 20260831184256 | 86 | 238 | 2.0 | 10.0 | 0.00 | 0.02 | 0.01 | 60 | 1015.9 |
| 20260831183755 | 85 | 260 | 2.0 | 12.0 | 0.00 | 0.02 | 0.01 | 62 | 1015.9 |
| 20260831183316 | 85 | 196 | 2.0 | 8.0 | 0.00 | 0.02 | 0.01 | 66 | 1015.9 |
| 20260831182753 | 85 | 244 | 1.0 | 9.0 | 0.00 | 0.02 | 0.01 | 67 | 1016.0 |
| 20260831182253 | 86 | 188 | 3.0 | 12.0 | 0.00 | 0.02 | 0.01 | 65 | 1015.9 |
| 20260831181812 | 84 | 181 | 2.0 | 7.0 | 0.00 | 0.02 | 0.01 | 69 | 1016.0 |
| 20260831181250 | 83 | 208 | 1.0 | 7.0 | 0.00 | 0.02 | 0.01 | 70 | 1016.0 |
| 20260831180749 | 82 | 230 | 0.0 | 5.0 | 0.00 | 0.02 | 0.01 | 71 | 1016.2 |
| 20260831180249 | 81 | 183 | 0.0 | 2.0 | 0.00 | 0.02 | 0.01 | 74 | 1016.3 |